Location: Kinloch
(38.7406°N, 90.3254°W)
Time: 15:11:44
(UTC+00:00)

MOS 1 Rocket - Pass Details

Date: 13 February 2026
Orbit: 608 x 814 km, 97.4° (Epoch: 8 March)

Event Time Altitude Azimuth Distance (km) Brightness Sun altitude
Rises 12:14:05 0° 12° (NNE) 2,902 6.5 -8.5°
Reaches altitude 10° 12:16:14 10° 12° (NNE) 2,008 5.7 -8.1°
Maximum altitude 12:20:36 87° 102° (ESE) 652 3.2 -7.3°
Drops below altitude 10° 12:25:10 10° 192° (SSW) 2,093 5.8 -6.4°
Sets 12:27:26 0° 192° (SSW) 3,035 6.6 -6.0°
